Location: Boss Branch
(32.3799°N, 97.2508°W)
Time: 00:00:23
(UTC+00:00)

JUGNU - Pass Details

Date: 12 December 2024
Orbit: 834 x 861 km, 20.0° (Epoch: 19 January)

Event Time Altitude Azimuth Distance (km) Brightness Sun altitude
Exits shadow 11:00:36 23° 189° (S) 1,685 ? -28.9°
Maximum altitude 11:01:09 24° 180° (S) 1,671 ? -28.8°
Drops below altitude 10° 11:05:41 10° 129° (SE) 2,426 ? -27.9°
Sets 11:08:41 0° 115° (ESE) 3,360 ? -27.2°
